Gallivare, Sweden

1:02 PM CEST on August 30, 2016 (GMT +0200)
Gallivare

Weather History for ESNG - April, 2014

Change the Weather History Date:

Sunday, April 6, 2014

  Actual Average Record
Temperature  
Mean Temperature 18 °F -  
Max Temperature 31 °F - - ()
Min Temperature 6 °F - - ()
Degree Days  
Heating Degree Days 46    
Moisture  
Dew Point 10 °F    
Average Humidity 58    
Maximum Humidity 92    
Minimum Humidity 26    
Precipitation  
Precipitation 0.00 in - - ()
Sea Level Pressure  
Sea Level Pressure 29.77 in    
Wind  
Wind Speed 6 mph ()    
Max Wind Speed 14 mph    
Max Gust Speed -    
Visibility 6.2 miles    
Events      
T = Trace of Precipitation, MM = Missing Value Source: Averaged Metar Reports

Daily Weather History Graph

Daily Weather History Graph

Search for Another Location

Airport or City:

Trip Planner

Search our weather history database for the weather conditions in past years. The results will help you decide how hot, cold, wet, or windy it might be!

Date:

Astronomy

Apr. 06, 2014 Rise Set
Actual Time 5:28 AM CEST 7:52 PM CEST
Civil Twilight 4:29 AM CEST 8:51 PM CEST
Nautical Twilight 3:05 AM CEST 10:17 PM CEST
Astronomical Twilight 1:11 AM CEST 12:06 AM CEST
Moon 8:28 AM CEST (4/6) 3:19 AM CEST (4/6)
Length of Visible Light 16h 21m
Length of Day
14h 23m
Waxing Crescent, 41% of the Moon is Illuminated
Apr 6
Waxing Crescent
Apr 7
First Quarter
Apr 15
Full
Apr 22
Last Quarter
Apr 29
New

Hourly Weather History & Observations

Time (CEST) Temp. Windchill Dew Point Humidity Pressure Visibility Wind Dir Wind Speed Gust Speed Precip Events Conditions
12:20 AM 24.8 °F 17.9 °F 17.6 °F 74% 29.65 in 6.2 mi NNW 5.8 mph - N/A   Mostly Cloudy
12:50 AM 23.0 °F 15.8 °F 15.8 °F 74% 29.65 in 6.2 mi West 5.8 mph - N/A   Mostly Cloudy
1:20 AM 23.0 °F 17.0 °F 15.8 °F 74% 29.68 in 6.2 mi West 4.6 mph - N/A   Mostly Cloudy
1:50 AM 23.0 °F 17.0 °F 15.8 °F 74% 29.68 in 6.2 mi WNW 4.6 mph - N/A   Overcast
2:00 AM 22 °F - 15 °F 65% 29.75 in 31 mi West 2.2 mph - -  
2:20 AM 21.2 °F 13.6 °F 14.0 °F 74% 29.68 in 6.2 mi West 5.8 mph - N/A   Overcast
2:50 AM 17.6 °F 8.2 °F 10.4 °F 73% 29.68 in 6.2 mi West 6.9 mph - N/A   Scattered Clouds
3:20 AM 15.8 °F 8.6 °F 10.4 °F 79% 29.68 in 6.2 mi West 4.6 mph - N/A   Unknown
3:50 AM 14.0 °F 5.1 °F 10.4 °F 86% 29.68 in 6.2 mi West 5.8 mph - N/A   Unknown
4:20 AM 14.0 °F 3.9 °F 8.6 °F 79% 29.71 in 6.2 mi West 6.9 mph - N/A   Unknown
4:50 AM 14.0 °F 3.9 °F 10.4 °F 86% 29.71 in 6.2 mi NW 6.9 mph - N/A   Unknown
5:00 AM 11 °F - 7 °F 75% 29.79 in 31 mi West 4.5 mph - -  
5:20 AM 12.2 °F 2.9 °F 6.8 °F 79% 29.71 in 6.2 mi NW 5.8 mph - N/A   Unknown
5:50 AM 8.6 °F - 6.8 °F 92% 29.71 in 6.2 mi Variable 2.3 mph - N/A   Unknown
6:20 AM 14.0 °F 5.1 °F 6.8 °F 73% 29.71 in 6.2 mi NW 5.8 mph - N/A   Unknown
6:50 AM 14.0 °F 5.1 °F 8.6 °F 79% 29.74 in 6.2 mi NW 5.8 mph - N/A   Unknown
7:20 AM 15.8 °F 6.1 °F 8.6 °F 73% 29.74 in 6.2 mi NNW 6.9 mph - N/A   Unknown
8:00 AM 18 °F - 10 °F 58% 29.82 in 31 mi West 4.5 mph - -  
8:20 AM 19.4 °F 12.8 °F 10.4 °F 68% 29.74 in 6.2 mi NW 4.6 mph - N/A   Unknown
8:50 AM 21.2 °F 13.6 °F 10.4 °F 63% 29.74 in 6.2 mi WNW 5.8 mph - N/A   Unknown
9:20 AM 23.0 °F 15.8 °F 12.2 °F 63% 29.74 in 6.2 mi West 5.8 mph - N/A   Unknown
9:50 AM 26.6 °F 20.0 °F 14.0 °F 59% 29.74 in 6.2 mi WNW 5.8 mph - N/A   Unknown
10:20 AM 28.4 °F 22.2 °F 12.2 °F 51% 29.74 in 6.2 mi West 5.8 mph - N/A   Unknown
10:50 AM 32.0 °F 23.0 °F 12.2 °F 44% 29.74 in 6.2 mi NNW 11.5 mph - N/A   Unknown
11:00 AM 29 °F - 11 °F 33% 29.82 in 25 mi North 6.7 mph - -  
11:20 AM 32.0 °F 23.6 °F 10.4 °F 41% 29.77 in 6.2 mi NNW 10.4 mph - N/A   Unknown
11:50 AM 32.0 °F 22.5 °F 10.4 °F 41% 29.77 in 6.2 mi NNW 12.7 mph - N/A   Unknown
12:20 PM 33.8 °F 24.3 °F 12.2 °F 41% 29.77 in 6.2 mi NNW 13.8 mph - N/A   Unknown
12:50 PM 33.8 °F 26.4 °F 8.6 °F 35% 29.77 in 6.2 mi North 9.2 mph - N/A   Unknown
1:20 PM 33.8 °F 25.3 °F 8.6 °F 35% 29.77 in 6.2 mi NNW 11.5 mph - N/A   Unknown
1:50 PM 33.8 °F 26.4 °F 8.6 °F 35% 29.77 in - North 9.2 mph - N/A   Clear
2:00 PM 31 °F - 10 °F 26% 29.85 in 22 mi North 6.7 mph - -  
2:20 PM 33.8 °F 25.3 °F 8.6 °F 35% 29.80 in - NW 11.5 mph - N/A   Clear
2:50 PM 33.8 °F 25.8 °F 10.4 °F 38% 29.80 in - NW 10.4 mph - N/A   Clear
3:20 PM 33.8 °F 25.8 °F 12.2 °F 41% 29.80 in - NNW 10.4 mph - N/A   Clear
3:50 PM 33.8 °F 25.8 °F 10.4 °F 38% 29.80 in - NNW 10.4 mph - N/A   Clear
4:20 PM 33.8 °F 25.8 °F 10.4 °F 38% 29.80 in - NNW 10.4 mph - N/A   Clear
4:50 PM 33.8 °F 25.8 °F 10.4 °F 38% 29.80 in - WNW 10.4 mph - N/A   Clear
5:00 PM 30 °F - 11 °F 30% 29.87 in 31 mi WNW 6.7 mph - -  
5:20 PM 33.8 °F 26.4 °F 10.4 °F 38% 29.80 in - NNW 9.2 mph - N/A   Clear
5:50 PM 33.8 °F 25.8 °F 12.2 °F 41% 29.80 in - NNW 10.4 mph - N/A   Clear
6:50 PM 30.2 °F 21.9 °F 12.2 °F 47% 29.80 in - NNW 9.2 mph - N/A   Clear
7:20 PM 30.2 °F 23.4 °F 10.4 °F 44% 29.80 in - NW 6.9 mph - N/A   Clear
7:50 PM 26.6 °F 19.1 °F 10.4 °F 51% 29.83 in - NW 6.9 mph - N/A   Clear
8:00 PM 23 °F - 10 °F 45% 29.90 in 25 mi NW 2.2 mph - -  
8:20 PM 26.6 °F 20.0 °F 10.4 °F 51% 29.83 in - NW 5.8 mph - N/A   Clear
8:50 PM 23.0 °F 15.8 °F 8.6 °F 54% 29.83 in - NW 5.8 mph - N/A   Clear
9:20 PM 19.4 °F 10.4 °F 8.6 °F 63% 29.83 in - NW 6.9 mph - N/A   Clear
9:50 PM 21.2 °F 13.6 °F 10.4 °F 63% 29.83 in - NW 5.8 mph - N/A   Clear
10:20 PM 17.6 °F 8.2 °F 8.6 °F 68% 29.83 in 6.2 mi WNW 6.9 mph - N/A   Unknown
10:50 PM 15.8 °F 8.6 °F 8.6 °F 73% 29.86 in 6.2 mi NW 4.6 mph - N/A   Unknown
11:00 PM 8 °F - 3 °F 73% 29.94 in 31 mi SW 2.2 mph - -   Clear
11:20 PM 14.0 °F 6.5 °F 6.8 °F 73% 29.86 in 6.2 mi WNW 4.6 mph - N/A   Unknown
11:50 PM 14.0 °F 5.1 °F 6.8 °F 73% 29.86 in 6.2 mi WSW 5.8 mph - N/A   Unknown